User: anonymous   Login
Location: Melbourne
(37.8170°S, 144.9670°E)
Time: 15:56:24
(UTC+11:00)
Language:

Explorer 11/Cluster Stage 4 - Orbit

View from above orbital plane
View from above orbital plane
View from above satellite
View from above satellite

Ground track
Ground track

The orbit data is extracted from the following two-line orbital elements,

1 00107U 61013A   16344.83452839  .00000522  00000-0  47773-4 0  9990
2 00107  28.7897 238.2872 0550035 225.3980 130.0429 14.08140619784350
Epoch (UTC): 09 December 2016 20:01:43
Eccentricity: 0.0550035
inclination: 28.7897°
perigee height: 467 km
apogee height: 1264 km
right ascension of ascending node: 238.2872°
argument of perigee: 225.3980°
revolutions per day: 14.08140619
mean anomaly at epoch: 130.0429°
orbit number at epoch: 78435

The dashed part of the orbit path shows where the satellite is in the earth's shadow,  

DLR